Terminal Aerodrome Forecast
Issued by NWS

Home | Current Version | Previous Version | Text Only | Print | Product List | Glossary On
Versions: 1 2 3 4 5 6 7 8 9 10 11 12 13 14 15 16 17 18 19
000
FTUS43 KGRB 020500
TAFAUW
TAF
KAUW 020520Z 0206/0306 26004KT P6SM SKC
     FM020800 28003KT 5SM BR SKC
     FM021400 26007KT P6SM VCSH SCT035 BKN090
     FM022000 26008KT P6SM SCT040 SCT090=

USA.gov is the U.S. government's official web portal to all federal, state and local government web resources and services.